Time,TemperatureF,DewpointF,PressureIn,WindDirection,WindDirectionDegrees,WindSpeedMPH,WindSpeedGustMPH,Humidity,HourlyPrecipIn,Conditions,Clouds,dailyrainin,SolarRadiationWatts/m^2,SoftwareType,DateUTC
2013-10-27 00:24:00,50.0,19.0,-100.00,East,83,4.0,5.0,29,-99.99,,,-99.99,0.000000,,2013-10-27 04:24:00,
2013-10-27 00:30:00,50.0,16.0,-100.00,ESE,115,2.0,4.0,25,-99.99,,,-99.99,0.000000,,2013-10-27 04:30:00,
2013-10-27 01:23:00,50.0,16.0,-100.00,ESE,115,2.0,4.0,25,-99.99,,,-99.99,0.000000,,2013-10-27 05:23:00,
2013-10-27 01:30:00,50.0,10.0,-100.00,ESE,113,2.0,6.0,19,-99.99,,,-99.99,0.000000,,2013-10-27 05:30:00,
2013-10-27 02:21:00,50.0,10.0,-100.00,ESE,113,2.0,6.0,19,-99.99,,,-99.99,0.000000,,2013-10-27 06:21:00,
2013-10-27 02:30:00,50.0,8.0,-100.00,SE,124,2.0,3.0,18,-99.99,,,-99.99,0.000000,,2013-10-27 06:30:00,
2013-10-27 03:21:00,50.0,8.0,-100.00,SE,124,2.0,3.0,18,-99.99,,,-99.99,0.000000,,2013-10-27 07:21:00,
2013-10-27 03:30:00,50.0,8.0,-100.00,SE,146,2.0,4.0,18,-99.99,,,-99.99,0.000000,,2013-10-27 07:30:00,
2013-10-27 04:22:00,50.0,8.0,-100.00,SE,146,2.0,4.0,18,-99.99,,,-99.99,0.000000,,2013-10-27 08:22:00,
2013-10-27 04:30:00,49.0,8.0,-100.00,SSW,198,1.0,1.0,19,-99.99,,,-99.99,0.000000,,2013-10-27 08:30:00,
2013-10-27 05:21:00,49.0,8.0,-100.00,SSW,198,1.0,1.0,19,-99.99,,,-99.99,0.000000,,2013-10-27 09:21:00,
2013-10-27 06:30:00,48.0,11.0,-100.00,South,173,2.0,3.0,22,-99.99,,,-99.99,0.000000,,2013-10-27 10:30:00,
2013-10-27 07:22:00,48.0,11.0,-100.00,South,173,2.0,3.0,22,-99.99,,,-99.99,0.000000,,2013-10-27 11:22:00,
2013-10-27 07:30:00,48.0,11.0,-100.00,South,177,2.0,4.0,22,-99.99,,,-99.99,0.000000,,2013-10-27 11:30:00,
2013-10-27 08:22:00,48.0,11.0,-100.00,South,177,2.0,4.0,22,-99.99,,,-99.99,0.000000,,2013-10-27 12:22:00,
2013-10-27 08:30:00,47.0,10.0,-100.00,SSE,156,3.0,4.0,22,-99.99,,,-99.99,0.000000,,2013-10-27 12:30:00,
2013-10-27 09:21:00,47.0,10.0,-100.00,SSE,156,3.0,4.0,22,-99.99,,,-99.99,0.000000,,2013-10-27 13:21:00,
2013-10-27 09:30:00,47.0,12.0,-100.00,SSE,158,3.0,5.0,24,-99.99,,,-99.99,0.000000,,2013-10-27 13:30:00,
2013-10-27 10:21:00,47.0,12.0,-100.00,SSE,158,3.0,5.0,24,-99.99,,,-99.99,0.000000,,2013-10-27 14:21:00,
2013-10-27 10:30:00,46.0,13.0,-100.00,SSE,147,3.0,5.0,26,-99.99,,,-99.99,3.000000,,2013-10-27 14:30:00,
2013-10-27 11:22:00,46.0,13.0,-100.00,SSE,147,3.0,5.0,26,-99.99,,,-99.99,3.000000,,2013-10-27 15:22:00,
2013-10-27 11:30:00,48.0,15.0,-100.00,SE,138,3.0,5.0,26,-99.99,,,-99.99,54.000000,,2013-10-27 15:30:00,
2013-10-27 12:24:00,48.0,15.0,-100.00,SE,138,3.0,5.0,26,-99.99,,,-99.99,54.000000,,2013-10-27 16:24:00,
2013-10-27 12:30:00,49.0,14.0,-100.00,SSE,168,3.0,6.0,24,-99.99,,,-99.99,235.000000,,2013-10-27 16:30:00,
2013-10-27 13:22:00,49.0,14.0,-100.00,SSE,168,3.0,6.0,24,-99.99,,,-99.99,235.000000,,2013-10-27 17:22:00,
2013-10-27 13:30:00,50.0,15.0,-100.00,SSW,202,4.0,10.0,25,-99.99,,,-99.99,26.000000,,2013-10-27 17:30:00,
2013-10-27 14:22:00,50.0,15.0,-100.00,SSW,202,4.0,10.0,25,-99.99,,,-99.99,26.000000,,2013-10-27 18:22:00,
2013-10-27 14:30:00,53.0,15.0,-100.00,SSE,161,4.0,9.0,22,-99.99,,,-99.99,437.000000,,2013-10-27 18:30:00,
2013-10-27 15:22:00,53.0,15.0,-100.00,SSE,161,4.0,9.0,22,-99.99,,,-99.99,437.000000,,2013-10-27 19:22:00,
2013-10-27 15:30:00,53.0,18.0,-100.00,South,170,4.0,10.0,25,-99.99,,,-99.99,472.000000,,2013-10-27 19:30:00,
2013-10-27 16:22:00,53.0,18.0,-100.00,South,170,4.0,10.0,25,-99.99,,,-99.99,472.000000,,2013-10-27 20:22:00,
2013-10-27 16:30:00,52.0,17.0,-100.00,South,191,5.0,15.0,25,-99.99,,,-99.99,460.000000,,2013-10-27 20:30:00,
2013-10-27 17:21:00,52.0,17.0,-100.00,South,191,5.0,15.0,25,-99.99,,,-99.99,460.000000,,2013-10-27 21:21:00,
2013-10-27 17:30:00,50.0,17.0,-100.00,SSW,199,6.0,14.0,26,-99.99,,,-99.99,399.000000,,2013-10-27 21:30:00,
2013-10-27 18:24:00,50.0,17.0,-100.00,SSW,199,6.0,14.0,26,-99.99,,,-99.99,399.000000,,2013-10-27 22:24:00,
2013-10-27 18:30:00,49.0,17.0,-100.00,South,181,5.0,16.0,28,-99.99,,,-99.99,81.000000,,2013-10-27 22:30:00,
2013-10-27 19:22:00,49.0,17.0,-100.00,South,181,5.0,16.0,28,-99.99,,,-99.99,81.000000,,2013-10-27 23:22:00,
2013-10-27 20:30:00,41.0,20.0,-100.00,SE,143,6.0,19.0,42,-99.99,,,-99.99,13.000000,,2013-10-28 00:30:00,
2013-10-27 21:21:00,41.0,20.0,-100.00,SE,143,6.0,19.0,42,-99.99,,,-99.99,13.000000,,2013-10-28 01:21:00,
2013-10-27 21:30:00,38.0,22.0,-100.00,East,79,15.0,25.0,51,-99.99,,,-99.99,0.000000,,2013-10-28 01:30:00,
2013-10-27 22:22:00,38.0,22.0,-100.00,East,79,15.0,25.0,51,-99.99,,,-99.99,0.000000,,2013-10-28 02:22:00,
2013-10-27 22:30:00,36.0,29.0,-100.00,SSW,204,6.0,19.0,74,-99.99,,,-99.99,0.000000,,2013-10-28 02:30:00,
2013-10-27 23:22:00,36.0,29.0,-100.00,SSW,204,6.0,19.0,74,-99.99,,,-99.99,0.000000,,2013-10-28 03:22:00,
2013-10-27 23:30:00,29.0,27.0,-100.00,ESE,110,7.0,19.0,91,-99.99,,,-99.99,0.000000,,2013-10-28 03:30:00,